Flag for Austria Weather past 2 weeks in Jennersdorf, Burgenland, Austria

Now
46 °F

Cool.


Feels Like: 44 °F
Forecast: 33 / 61 °F
Wind: 3 mph from Northeast

Location: Murska Sobota

Current Time: Mar 28, 2015 at 5:33:46 AM

Latest Report: Mar 28, 2015 at 4:00 AM


Visibility: N/A

Pressure: 30.05 "Hg

Humidity: 57%

Dew point: 31 °F

Location of JennersdorfLocation

Historic Weather in Jennersdorf — Graph

°F

Jennersdorf temperature yesterday

Maximum temperature yesterday: 50 °F (at 4:00 PM)
Minimum temperature yesterday: 46 °F (at 8:00 AM)
Average temperature yesterday: 49 °F

Past Weeks' High & Low Weather Summary

 TemperatureHumidityPressure
High65 °F (Mar 26, 3:00 PM)100% (Mar 27, 4:00 AM)30.52 "Hg (Mar 27, 4:00 AM)
Low27 °F (Mar 20, 6:00 AM)33% (Mar 18, 3:00 PM)29.72 "Hg (Mar 25, 7:00 PM)
Average44 °F71%30.14 "Hg
* Reported Mar 13 3:00 AM — Mar 28 3:00 AM, Jennersdorf, Weather by CustomWeather, © 2015

Note: Actual official high and low records may vary slightly from our data, if they occured in-between our weather recording intervals... More about our weather records

Advertising

Jennersdorf weather history for previous 24 hours

 ConditionsComfort  
Time TempWeatherWind HumidityBarometerVisibility
3:00 AM
Sat, Mar 28
47 °FCool.3 mph55%30.04 "HgN/A
2:00 AM49 °FCool.8 mph49%30.02 "HgN/A
1:00 AM49 °FCool.7 mph50%30.02 "HgN/A
12:00 AM49 °FCool.7 mph50%30.01 "HgN/A
11:00 PM
Fri, Mar 27
49 °FCool.9 mph48%30.01 "HgN/A
10:00 PM49 °FCool.6 mph52%30.00 "HgN/A
9:00 PM49 °FCool.6 mph53%29.99 "HgN/A
8:00 PM49 °FCool.6 mph51%29.97 "HgN/A
7:00 PM49 °FOvercast.6 mph57%29.95 "Hg12 mi
6:00 PM49 °FCool.5 mph60%29.93 "HgN/A
5:00 PM50 °FCool.5 mph61%29.90 "HgN/A
4:00 PM50 °FCool.3 mph73%29.89 "HgN/A
3:00 PM50 °FCool.2 mph78%29.89 "HgN/A
2:00 PM49 °FOvercast.1 mph82%29.90 "Hg12 mi
1:00 PM48 °FOvercast.2 mph85%29.90 "Hg12 mi
12:00 PM47 °FCool.2 mph87%29.89 "HgN/A
11:00 AM47 °FCool.3 mph91%29.88 "HgN/A
10:00 AM47 °FCool.3 mph91%29.87 "HgN/A
9:00 AM46 °FCool.3 mph92%29.86 "HgN/A
8:00 AM46 °FLight rain. Overcast.6 mph90%29.83 "Hg1 mi
7:00 AM48 °FLight rain. Overcast.2 mph90%29.81 "Hg1 mi
6:00 AM49 °FCool.5 mph90%29.77 "HgN/A
5:00 AM49 °FCool.3 mph99%29.75 "HgN/A
Weather by CustomWeather, © 2015

See weather overviewHow to use our weather pages